EW3012 Weather Reports


time (UTC)temp
C
wind
direction
speed
KPH
gust
KPH
rain 1hr
cm
rain 24hr
cm
rain mn
cm
humidity
%
barometer
mb
20260505072806 21 162 0.0 6.4 0.00 0.00 0.00 50 1015.2
20260505072307 21 86 0.0 4.8 0.00 0.00 0.00 48 1015.0
20260505071805 21 147 0.0 9.7 0.00 0.00 0.00 52 1015.0
20260505071302 21 62 0.0 9.7 0.00 0.00 0.00 50 1015.1
20260505071227 20 157 0.0 4.8 0.00 0.00 0.00 50 1015.1
20260505070701 20 93 0.0 0.0 0.00 0.00 0.00 50 1015.1
20260505070450 20 131 0.0 0.0 0.00 0.00 0.00 50 1015.1
20260505065727 20 125 0.0 3.2 0.00 0.00 0.00 51 1015.1
20260505065214 20 83 0.0 3.2 0.00 0.00 0.00 53 1015.2
20260505064734 21 92 0.0 0.0 0.00 0.00 0.00 58 1015.1
20260505063802 20 133 0.0 0.0 0.00 0.00 0.00 54 1015.1
20260505063255 20 39 0.0 0.0 0.00 0.00 0.00 57 1015.1
20260505062757 19 24 0.0 0.0 0.00 0.00 0.00 58 1015.1
20260505062255 18 24 0.0 0.0 0.00 0.00 0.00 60 1015.1
20260505061752 18 233 0.0 0.0 0.00 0.00 0.00 60 1015.1
20260505061251 18 230 0.0 0.0 0.00 0.00 0.00 64 1015.2
20260505060751 16 231 0.0 0.0 0.00 0.00 0.00 67 1015.1
20260505060252 16 266 0.0 0.0 0.00 0.00 0.00 71 1015.2
20260505055753 15 248 0.0 0.0 0.00 0.00 0.00 73 1015.2
20260505055723 15 237 0.0 0.0 0.00 0.00 0.00 73 1015.3
20260505054749 14 259 0.0 0.0 0.00 0.00 0.00 76 1015.1
20260505054250 14 255 0.0 0.0 0.00 0.00 0.00 76 1015.3
20260505053748 13 261 0.0 0.0 0.00 0.00 0.00 78 1015.2
20260505053709 13 237 0.0 0.0 0.00 0.00 0.00 80 1015.3
20260505052748 13 231 0.0 0.0 0.00 0.00 0.00 80 1015.3
20260505052247 12 228 0.0 0.0 0.00 0.00 0.00 83 1015.3
20260505051746 12 275 0.0 0.0 0.00 0.00 0.00 83 1015.3
20260505051247 11 228 0.0 0.0 0.00 0.00 0.00 86 1015.3
20260505050744 11 228 0.0 0.0 0.00 0.00 0.00 88 1015.2
20260505050241 10 228 0.0 0.0 0.00 0.00 0.00 88 1015.3
20260505041734 6 309 0.0 3.2 0.00 0.00 0.00 82 1015.3
20260505041234 5 251 0.0 4.8 0.00 0.00 0.00 82 1015.3
20260505040733 5 251 1.6 4.8 0.00 0.00 0.00 82 1015.3
20260505040652 4 237 0.0 0.0 0.00 0.00 0.00 82 1015.3
20260505035734 4 237 0.0 0.0 0.00 0.00 0.00 82 1015.3
20260505035232 4 265 0.0 0.0 0.00 0.00 0.00 83 1015.3
20260505035200 3 266 0.0 0.0 0.00 0.00 0.00 83 1015.3
20260505034231 3 266 0.0 0.0 0.00 0.00 0.00 83 1015.3
20260505033732 3 240 0.0 0.0 0.00 0.00 0.00 83 1015.3
20260505033232 3 238 0.0 0.0 0.00 0.00 0.00 84 1015.3
20260505032732 3 240 0.0 0.0 0.00 0.00 0.00 84 1015.3
20260505032232 3 257 0.0 0.0 0.00 0.00 0.00 84 1015.3
20260505031733 3 261 0.0 0.0 0.00 0.00 0.00 84 1015.3
20260505031231 3 262 0.0 0.0 0.00 0.00 0.00 84 1015.3
20260505030734 3 262 0.0 0.0 0.00 0.00 0.00 84 1015.3
20260505030232 3 241 0.0 0.0 0.00 0.00 0.00 84 1015.2
20260505025731 3 241 0.0 0.0 0.00 0.00 0.00 85 1015.3
20260505025636 3 241 0.0 0.0 0.00 0.00 0.00 85 1015.2
20260505025422 3 241 0.0 0.0 0.00 0.00 0.00 85 1015.2
20260505024634 4 241 0.0 0.0 0.00 0.00 0.00 85 1015.2
20260505024422 3 241 0.0 0.0 0.00 0.00 0.00 85 1015.2
20260505023232 4 241 0.0 0.0 0.00 0.00 0.00 85 1015.2
20260505022730 4 261 0.0 0.0 0.00 0.00 0.00 85 1015.2
20260505022231 4 257 0.0 0.0 0.00 0.00 0.00 86 1015.1
20260505021730 4 257 0.0 0.0 0.00 0.00 0.00 86 1015.1
20260505021230 4 265 0.0 0.0 0.00 0.00 0.00 85 1015.2
20260505020729 4 274 0.0 0.0 0.00 0.00 0.00 86 1015.2
20260505020229 4 274 0.0 0.0 0.00 0.00 0.00 85 1015.1
20260505015729 4 252 0.0 0.0 0.00 0.00 0.00 86 1015.2
20260505015651 4 251 0.0 0.0 0.00 0.00 0.00 86 1015.1
20260505014730 5 272 0.0 0.0 0.00 0.00 0.00 85 1015.1
20260505014230 5 247 0.0 0.0 0.00 0.00 0.00 86 1015.1
20260505013730 4 247 0.0 0.0 0.00 0.00 0.00 86 1015.1
20260505013229 5 247 0.0 0.0 0.00 0.00 0.00 86 1015.0
20260505012728 5 245 0.0 3.2 0.00 0.00 0.00 86 1015.0
20260505012722 5 245 0.0 4.8 0.00 0.00 0.00 86 1015.0
20260505011728 5 247 1.6 4.8 0.00 0.00 0.00 86 1015.0
20260505011231 5 235 0.0 0.0 0.00 0.00 0.00 87 1014.9
20260505010729 5 252 0.0 0.0 0.00 0.00 0.00 87 1015.0
20260505010230 5 252 0.0 0.0 0.00 0.00 0.00 87 1015.0
20260505005729 5 264 0.0 0.0 0.00 0.00 0.00 87 1015.0
20260505005651 5 264 0.0 11.3 0.00 0.00 0.00 87 1014.9
20260505004727 6 272 0.0 11.3 0.00 0.00 0.00 86 1014.8
20260505004227 5 254 3.2 6.4 0.00 0.00 0.00 85 1014.8
20260505003728 5 252 3.2 11.3 0.00 0.00 0.00 86 1014.7
20260505003227 5 250 4.8 11.3 0.00 0.00 0.00 85 1014.8
20260505002729 5 243 0.0 0.0 0.00 0.00 0.00 86 1014.8
20260505002658 5 278 0.0 0.0 0.00 0.00 0.00 86 1014.8
20260505001727 5 265 0.0 0.0 0.00 0.00 0.00 87 1014.9
20260505001231 5 265 0.0 0.0 0.00 0.00 0.00 87 1014.9
20260505000726 5 265 0.0 0.0 0.00 0.00 0.00 87 1014.8
20260505000228 6 241 0.0 4.8 0.00 0.00 0.00 87 1014.8
20260504235727 5 245 1.6 4.8 0.00 0.00 0.00 87 1014.8
20260504235227 6 186 0.0 1.6 0.00 0.00 0.00 88 1015.0
20260504234726 6 186 0.0 14.5 0.00 0.00 0.00 88 1015.0
20260504234229 6 186 1.6 14.5 0.00 0.00 0.00 87 1014.9
20260504233726 6 278 1.6 6.4 0.00 0.00 0.00 88 1014.8
20260504233227 6 244 0.0 9.7 0.00 0.00 0.00 87 1014.9
20260504232726 6 251 1.6 9.7 0.00 0.00 0.00 87 1014.8
20260504232225 6 247 4.8 9.7 0.00 0.00 0.00 86 1014.9
20260504231725 6 262 1.6 6.4 0.00 0.00 0.00 86 1015.0
20260504231226 5 237 0.0 0.0 0.00 0.00 0.00 87 1015.0
20260504230726 6 237 0.0 1.6 0.00 0.00 0.00 88 1015.1
20260504230228 6 243 0.0 1.6 0.00 0.00 0.00 88 1015.1
20260504225726 6 257 0.0 0.0 0.00 0.00 0.00 88 1015.2
20260504225225 6 257 0.0 6.4 0.00 0.00 0.00 88 1015.1
20260504225145 6 257 1.6 6.4 0.00 0.00 0.00 88 1015.1
20260504224225 6 228 0.0 4.8 0.00 0.00 0.00 88 1015.2
20260504223724 7 63 0.0 8.0 0.00 0.00 0.00 88 1015.3
20260504223643 7 300 1.6 8.0 0.00 0.00 0.00 88 1015.2
20260504222724 6 279 1.6 6.4 0.00 0.00 0.00 88 1015.1
20260504222224 6 47 0.0 1.6 0.00 0.00 0.00 88 1015.2
20260504221726 7 281 0.0 0.0 0.00 0.00 0.00 88 1015.2
20260504221226 8 281 0.0 4.8 0.00 0.00 0.00 88 1015.2
20260504220724 8 265 0.0 6.4 0.00 0.00 0.00 88 1015.4
20260504220225 8 281 1.6 9.7 0.00 0.00 0.00 88 1015.3
20260504215724 8 271 3.2 9.7 0.00 0.00 0.00 87 1015.3
20260504215541 7 214 0.0 4.8 0.00 0.00 0.00 87 1015.3
20260504215358 7 269 0.0 11.3 0.00 0.00 0.00 87 1015.3
20260504214908 7 274 1.6 11.3 0.00 0.00 0.00 87 1015.3
20260504213725 7 268 0.0 0.0 0.00 0.00 0.00 88 1015.3
20260504213223 7 269 0.0 0.0 0.00 0.00 0.00 88 1015.3
20260504212724 7 269 0.0 0.0 0.00 0.00 0.00 88 1015.3
20260504212224 8 274 0.0 4.8 0.00 0.00 0.00 88 1015.4
20260504211726 8 228 0.0 9.7 0.00 0.00 0.00 87 1015.4
20260504211223 8 266 3.2 9.7 0.00 0.00 0.00 87 1015.4
20260504210725 8 264 3.2 8.0 0.00 0.00 0.00 87 1015.4
20260504210223 8 262 4.8 8.0 0.00 0.00 0.00 86 1015.3
20260504210204 7 281 0.0 4.8 0.00 0.00 0.00 86 1015.3
20260504205225 7 271 1.6 4.8 0.00 0.00 0.00 86 1015.3
20260504204724 6 252 0.0 0.0 0.00 0.00 0.00 87 1015.3
20260504204224 7 228 0.0 0.0 0.00 0.00 0.00 87 1015.3
20260504203722 7 228 0.0 0.0 0.00 0.00 0.00 87 1015.3
20260504203223 7 274 0.0 0.0 0.00 0.00 0.00 87 1015.4
20260504203114 7 272 0.0 0.0 0.00 0.00 0.00 87 1015.2
20260504202911 7 274 0.0 0.0 0.00 0.00 0.00 87 1015.3
20260504201722 7 272 0.0 0.0 0.00 0.00 0.00 87 1015.3
20260504201221 7 272 0.0 0.0 0.00 0.00 0.00 87 1015.3
20260504200724 7 272 0.0 0.0 0.00 0.00 0.00 87 1015.3
20260504200221 7 250 0.0 0.0 0.00 0.00 0.00 87 1015.3
20260504195722 8 250 0.0 0.0 0.00 0.00 0.00 87 1015.3
20260504195221 8 250 0.0 0.0 0.00 0.00 0.00 87 1015.2
20260504194723 8 250 0.0 0.0 0.00 0.00 0.00 87 1015.2
20260504194649 8 250 0.0 0.0 0.00 0.00 0.00 87 1015.2
20260504193721 8 250 0.0 0.0 0.00 0.00 0.00 87 1015.2
20260504193221 8 244 0.0 0.0 0.00 0.00 0.00 87 1015.3
20260504192720 8 244 0.0 0.0 0.00 0.00 0.00 87 1015.3
20260504192222 8 252 0.0 0.0 0.00 0.00 0.00 87 1015.2
20260504192132 8 217 0.0 0.0 0.00 0.00 0.00 87 1015.2
20260504191223 8 217 0.0 0.0 0.00 0.00 0.00 87 1015.2
20260504190721 8 204 0.0 0.0 0.00 0.00 0.00 87 1015.3
20260504190219 9 204 0.0 0.0 0.00 0.00 0.00 86 1015.5
20260504185720 9 204 0.0 0.0 0.00 0.00 0.00 86 1015.3
20260504185219 10 204 0.0 0.0 0.00 0.00 0.00 86 1015.4
20260504184720 10 204 0.0 0.0 0.00 0.00 0.00 85 1015.4
20260504184635 10 204 0.0 0.0 0.00 0.00 0.00 85 1015.3
20260504183717 10 204 0.0 0.0 0.00 0.00 0.00 84 1015.3
20260504183217 11 206 0.0 0.0 0.00 0.00 0.00 83 1015.2
20260504182715 11 268 0.0 0.0 0.00 0.00 0.00 82 1015.2
20260504182215 11 298 0.0 0.0 0.00 0.00 0.00 81 1015.1
20260504181715 12 296 0.0 0.0 0.00 0.00 0.00 80 1015.1
20260504181213 12 281 0.0 0.0 0.00 0.00 0.00 79 1015.2
20260504180712 12 261 0.0 0.0 0.00 0.00 0.00 79 1015.1
20260504180214 12 276 0.0 0.0 0.00 0.00 0.00 77 1015.1
20260504180128 13 224 0.0 4.8 0.00 0.00 0.00 76 1015.1
20260504175212 13 257 0.0 4.8 0.00 0.00 0.00 76 1015.0
20260504174705 13 293 0.0 3.2 0.00 0.00 0.00 78 1015.0
20260504174206 12 259 0.0 0.0 0.00 0.00 0.00 78 1014.9
20260504173707 13 309 0.0 0.0 0.00 0.00 0.00 77 1014.8
20260504173206 13 309 0.0 0.0 0.00 0.00 0.00 77 1014.9
20260504172705 13 54 0.0 0.0 0.00 0.00 0.00 74 1014.9
20260504172204 13 54 0.0 0.0 0.00 0.00 0.00 72 1014.9
20260504171704 14 54 0.0 0.0 0.00 0.00 0.00 71 1014.8
20260504171618 15 54 0.0 0.0 0.00 0.00 0.00 69 1014.7
20260504171127 15 54 0.0 0.0 0.00 0.00 0.00 69 1014.7
20260504170203 15 54 0.0 0.0 0.00 0.00 0.00 69 1014.7
20260504160157 18 111 0.0 0.0 0.00 0.00 0.00 60 1014.4
20260504151149 18 138 0.0 1.6 0.00 0.00 0.00 57 1014.3
20260504151048 18 138 0.0 0.0 0.00 0.00 0.00 57 1014.4
20260504150841 18 120 0.0 1.6 0.00 0.00 0.00 56 1014.3
20260504141142 19 109 0.0 14.5 0.00 0.00 0.00 55 1014.2
20260504140641 19 54 0.0 9.7 0.00 0.00 0.00 54 1014.2
20260504140137 19 72 0.0 9.7 0.00 0.00 0.00 54 1014.2
20260504130132 19 148 0.0 14.5 0.00 0.00 0.00 55 1014.4
20260504120131 20 107 3.2 14.5 0.00 0.00 0.00 49 1014.7
20260504110632 20 147 0.0 14.5 0.00 0.00 0.00 48 1014.9
20260504110129 21 113 1.6 19.3 0.00 0.00 0.00 48 1014.9
20260504100120 20 158 0.0 11.3 0.00 0.00 0.00 48 1015.0
20260504090109 20 104 3.2 9.7 0.00 0.00 0.00 46 1015.4
20260504081600 20 111 3.2 17.7 0.00 0.00 0.00 43 1015.1
20260504081059 20 233 1.6 14.5 0.00 0.00 0.00 43 1015.2
20260504080602 20 78 0.0 16.1 0.00 0.00 0.00 44 1015.1